Year,Month,Day,Hour,Minute,Value (Times are PST for temperature in C)
2008,05,31,00,00,9.60
2008,05,31,00,01,9.60
2008,05,31,00,02,9.60
2008,05,31,00,03,9.60
2008,05,31,00,04,9.60
2008,05,31,00,05,9.50
2008,05,31,00,06,9.50
2008,05,31,00,07,9.50
2008,05,31,00,08,9.50
2008,05,31,00,09,9.40
2008,05,31,00,10,9.40
2008,05,31,00,11,9.40
2008,05,31,00,12,9.40
2008,05,31,00,13,9.30
2008,05,31,00,14,9.30
2008,05,31,00,15,9.20
2008,05,31,00,16,9.20
2008,05,31,00,17,9.20
2008,05,31,00,18,9.20
2008,05,31,00,19,9.20
2008,05,31,00,20,9.10
2008,05,31,00,21,9.10
2008,05,31,00,22,9.10
2008,05,31,00,23,9.10
2008,05,31,00,24,9.00
2008,05,31,00,25,9.00
2008,05,31,00,26,9.00
2008,05,31,00,27,9.00
2008,05,31,00,28,9.00
2008,05,31,00,29,9.00
2008,05,31,00,30,9.00
2008,05,31,00,31,9.00
2008,05,31,00,32,9.00
2008,05,31,00,33,9.00
2008,05,31,00,34,9.00
2008,05,31,00,35,9.00
2008,05,31,00,36,9.00
2008,05,31,00,37,9.00
2008,05,31,00,38,9.00
2008,05,31,00,39,9.10
2008,05,31,00,40,9.10
2008,05,31,00,41,9.10
2008,05,31,00,42,9.10
2008,05,31,00,43,9.00
2008,05,31,00,44,9.00
2008,05,31,00,45,9.00
2008,05,31,00,46,9.00
2008,05,31,00,47,8.90
2008,05,31,00,48,8.90
2008,05,31,00,49,8.90
2008,05,31,00,50,8.90
2008,05,31,00,51,8.90
2008,05,31,00,52,8.90
2008,05,31,00,53,8.90
2008,05,31,00,54,8.80
2008,05,31,00,55,8.80
2008,05,31,00,56,8.80
2008,05,31,00,57,8.80
2008,05,31,00,58,8.80
2008,05,31,00,59,8.80
2008,05,31,01,00,8.80
2008,05,31,01,01,8.80
2008,05,31,01,02,8.80
2008,05,31,01,03,8.80
2008,05,31,01,04,8.80
2008,05,31,01,05,8.80
2008,05,31,01,06,8.80
2008,05,31,01,07,8.80
2008,05,31,01,08,8.80
2008,05,31,01,09,8.70
2008,05,31,01,10,8.70
2008,05,31,01,11,8.70
2008,05,31,01,12,8.70
2008,05,31,01,13,8.70
2008,05,31,01,14,8.70
2008,05,31,01,15,8.70
2008,05,31,01,16,8.70
2008,05,31,01,17,8.70
2008,05,31,01,18,8.70
2008,05,31,01,19,8.70
2008,05,31,01,20,8.70
2008,05,31,01,21,8.70
2008,05,31,01,22,8.70
2008,05,31,01,23,8.70
2008,05,31,01,24,8.70
2008,05,31,01,25,8.70
2008,05,31,01,26,8.70
2008,05,31,01,27,8.70
2008,05,31,01,28,8.70
2008,05,31,01,29,8.70
2008,05,31,01,30,8.70
2008,05,31,01,31,8.70
2008,05,31,01,32,8.70
2008,05,31,01,33,8.70
2008,05,31,01,34,8.70
2008,05,31,01,35,8.70
2008,05,31,01,36,8.60
2008,05,31,01,37,8.60
2008,05,31,01,38,8.60
2008,05,31,01,39,8.60
2008,05,31,01,40,8.60
2008,05,31,01,41,8.60
2008,05,31,01,42,8.60
2008,05,31,01,43,8.60
2008,05,31,01,44,8.50
2008,05,31,01,45,8.50
2008,05,31,01,46,8.50
2008,05,31,01,47,8.50
2008,05,31,01,48,8.50
2008,05,31,01,49,8.50
2008,05,31,01,50,8.50
2008,05,31,01,51,8.50
2008,05,31,01,52,8.50
2008,05,31,01,53,8.50
2008,05,31,01,54,8.50
2008,05,31,01,55,8.50
2008,05,31,01,56,8.50
2008,05,31,01,57,8.50
2008,05,31,01,58,8.50
2008,05,31,01,59,8.50
2008,05,31,02,00,8.50
2008,05,31,02,01,8.50
2008,05,31,02,02,8.50
2008,05,31,02,03,8.50
2008,05,31,02,04,8.50
2008,05,31,02,05,8.50
2008,05,31,02,06,8.50
2008,05,31,02,07,8.50
2008,05,31,02,08,8.50
2008,05,31,02,09,8.50
2008,05,31,02,10,8.50
2008,05,31,02,11,8.40
2008,05,31,02,12,8.40
2008,05,31,02,13,8.40
2008,05,31,02,14,8.40
2008,05,31,02,15,8.40
2008,05,31,02,16,8.40
2008,05,31,02,17,8.40
2008,05,31,02,18,8.40
2008,05,31,02,19,8.40
2008,05,31,02,20,8.40
2008,05,31,02,21,8.40
2008,05,31,02,22,8.40
2008,05,31,02,23,8.40
2008,05,31,02,24,8.40
2008,05,31,02,25,8.40
2008,05,31,02,26,8.40
2008,05,31,02,27,8.40
2008,05,31,02,28,8.40
2008,05,31,02,29,8.40
2008,05,31,02,30,8.40
2008,05,31,02,31,8.40
2008,05,31,02,32,8.40
2008,05,31,02,33,8.40
2008,05,31,02,34,8.40
2008,05,31,02,35,8.40
2008,05,31,02,36,8.30
2008,05,31,02,37,8.30
2008,05,31,02,38,8.30
2008,05,31,02,39,8.30
2008,05,31,02,40,8.20
2008,05,31,02,41,8.20
2008,05,31,02,42,8.20
2008,05,31,02,43,8.10
2008,05,31,02,44,8.10
2008,05,31,02,45,8.00
2008,05,31,02,46,8.00
2008,05,31,02,47,8.00
2008,05,31,02,48,8.00
2008,05,31,02,49,8.00
2008,05,31,02,50,8.00
2008,05,31,02,51,7.90
2008,05,31,02,52,7.90
2008,05,31,02,53,7.90
2008,05,31,02,54,7.90
2008,05,31,02,55,7.90
2008,05,31,02,56,7.90
2008,05,31,02,57,7.90
2008,05,31,02,58,7.90
2008,05,31,02,59,7.90
2008,05,31,03,00,7.90
2008,05,31,03,01,7.90
2008,05,31,03,02,7.90
2008,05,31,03,03,7.90
2008,05,31,03,04,7.80
2008,05,31,03,05,7.80
2008,05,31,03,06,7.80
2008,05,31,03,07,7.80
2008,05,31,03,08,7.80
2008,05,31,03,09,7.90
2008,05,31,03,10,7.90
2008,05,31,03,11,7.90
2008,05,31,03,12,7.90
2008,05,31,03,13,7.90
2008,05,31,03,14,7.90
2008,05,31,03,15,7.80
2008,05,31,03,16,7.80
2008,05,31,03,17,7.80
2008,05,31,03,18,7.80
2008,05,31,03,19,7.80
2008,05,31,03,20,7.90
2008,05,31,03,21,7.90
2008,05,31,03,22,8.00
2008,05,31,03,23,8.00
2008,05,31,03,24,8.00
2008,05,31,03,25,8.10
2008,05,31,03,26,8.10
2008,05,31,03,27,8.10
2008,05,31,03,28,8.20
2008,05,31,03,29,8.20
2008,05,31,03,30,8.20
2008,05,31,03,31,8.20
2008,05,31,03,32,8.20
2008,05,31,03,33,8.20
2008,05,31,03,34,8.20
2008,05,31,03,35,8.20
2008,05,31,03,36,8.20
2008,05,31,03,37,8.10
2008,05,31,03,38,8.10
2008,05,31,03,39,8.10
2008,05,31,03,40,8.00
2008,05,31,03,41,8.00
2008,05,31,03,42,8.00
2008,05,31,03,43,7.90
2008,05,31,03,44,7.90
2008,05,31,03,45,7.90
2008,05,31,03,46,7.90
2008,05,31,03,47,7.90
2008,05,31,03,48,7.80
2008,05,31,03,49,7.80
2008,05,31,03,50,7.80
2008,05,31,03,51,7.80
2008,05,31,03,52,7.80
2008,05,31,03,53,7.80
2008,05,31,03,54,7.80
2008,05,31,03,55,7.80
2008,05,31,03,56,7.80
2008,05,31,03,57,7.80
2008,05,31,03,58,7.80
2008,05,31,03,59,7.80
2008,05,31,04,00,7.80
2008,05,31,04,01,7.70
2008,05,31,04,02,7.70
2008,05,31,04,03,7.70
2008,05,31,04,04,7.70
2008,05,31,04,05,7.70
2008,05,31,04,06,7.70
2008,05,31,04,07,7.60
2008,05,31,04,08,7.60
2008,05,31,04,09,7.60
2008,05,31,04,10,7.60
2008,05,31,04,11,7.60
2008,05,31,04,12,7.60
2008,05,31,04,13,7.60
2008,05,31,04,14,7.50
2008,05,31,04,15,7.60
2008,05,31,04,16,7.60
2008,05,31,04,17,7.60
2008,05,31,04,18,7.60
2008,05,31,04,19,7.70
2008,05,31,04,20,7.70
2008,05,31,04,21,7.70
2008,05,31,04,22,7.70
2008,05,31,04,23,7.70
2008,05,31,04,24,7.70
2008,05,31,04,25,7.70
2008,05,31,04,26,7.70
2008,05,31,04,27,7.70
2008,05,31,04,28,7.70
2008,05,31,04,29,7.60
2008,05,31,04,30,7.60
2008,05,31,04,31,7.60
2008,05,31,04,32,7.50
2008,05,31,04,33,7.50
2008,05,31,04,34,7.50
2008,05,31,04,35,7.40
2008,05,31,04,36,7.50
2008,05,31,04,37,7.50
2008,05,31,04,38,7.50
2008,05,31,04,39,7.60
2008,05,31,04,40,7.60
2008,05,31,04,41,7.60
2008,05,31,04,42,7.60
2008,05,31,04,43,7.60
2008,05,31,04,44,7.60
2008,05,31,04,45,7.60
2008,05,31,04,46,7.50
2008,05,31,04,47,7.50
2008,05,31,04,48,7.40
2008,05,31,04,49,7.40
2008,05,31,04,50,7.40
2008,05,31,04,51,7.50
2008,05,31,04,52,7.50
2008,05,31,04,53,7.50
2008,05,31,04,54,7.50
2008,05,31,04,55,7.50
2008,05,31,04,56,7.50
2008,05,31,04,57,7.50
2008,05,31,04,58,7.50
2008,05,31,04,59,7.50
2008,05,31,05,00,7.50
2008,05,31,05,01,7.50
2008,05,31,05,02,7.50
2008,05,31,05,03,7.40
2008,05,31,05,04,7.40
2008,05,31,05,05,7.40
2008,05,31,05,06,7.40
2008,05,31,05,07,7.40
2008,05,31,05,08,7.40
2008,05,31,05,09,7.40
2008,05,31,05,10,7.40
2008,05,31,05,11,7.40
2008,05,31,05,12,7.40
2008,05,31,05,13,7.30
2008,05,31,05,14,7.30
2008,05,31,05,15,7.30
2008,05,31,05,16,7.30
2008,05,31,05,17,7.30
2008,05,31,05,18,7.30
2008,05,31,05,19,7.30
2008,05,31,05,20,7.30
2008,05,31,05,21,7.30
2008,05,31,05,22,7.30
2008,05,31,05,23,7.30
2008,05,31,05,24,7.30
2008,05,31,05,25,7.30
2008,05,31,05,26,7.30
2008,05,31,05,27,7.30
2008,05,31,05,28,7.30
2008,05,31,05,29,7.30
2008,05,31,05,30,7.30
2008,05,31,05,31,7.30
2008,05,31,05,32,7.30
2008,05,31,05,33,7.30
2008,05,31,05,34,7.30
2008,05,31,05,35,7.30
2008,05,31,05,36,7.30
2008,05,31,05,37,7.30
2008,05,31,05,38,7.30
2008,05,31,05,39,7.30
2008,05,31,05,40,7.30
2008,05,31,05,41,7.30
2008,05,31,05,42,7.40
2008,05,31,05,43,7.40
2008,05,31,05,44,7.40
2008,05,31,05,45,7.30
2008,05,31,05,46,7.30
2008,05,31,05,47,7.30
2008,05,31,05,48,7.30
2008,05,31,05,49,7.30
2008,05,31,05,50,7.30
2008,05,31,05,51,7.40
2008,05,31,05,52,7.40
2008,05,31,05,53,7.40
2008,05,31,05,54,7.40
2008,05,31,05,55,7.40
2008,05,31,05,56,7.40
2008,05,31,05,57,7.40
2008,05,31,05,58,7.50
2008,05,31,05,59,7.50
2008,05,31,06,00,7.50
2008,05,31,06,01,7.50
2008,05,31,06,02,7.50
2008,05,31,06,03,7.50
2008,05,31,06,04,7.50
2008,05,31,06,05,7.50
2008,05,31,06,06,7.60
2008,05,31,06,07,7.60
2008,05,31,06,08,7.60
2008,05,31,06,09,7.60
2008,05,31,06,10,7.60
2008,05,31,06,11,7.60
2008,05,31,06,12,7.60
2008,05,31,06,13,7.70
2008,05,31,06,14,7.70
2008,05,31,06,15,7.70
2008,05,31,06,16,7.70
2008,05,31,06,17,7.80
2008,05,31,06,18,7.80
2008,05,31,06,19,7.80
2008,05,31,06,20,7.80
2008,05,31,06,21,7.90
2008,05,31,06,22,7.90
2008,05,31,06,23,7.90
2008,05,31,06,24,8.00
2008,05,31,06,25,8.00
2008,05,31,06,26,8.10
2008,05,31,06,27,8.10
2008,05,31,06,28,8.20
2008,05,31,06,29,8.20
2008,05,31,06,30,8.20
2008,05,31,06,31,8.30
2008,05,31,06,32,8.30
2008,05,31,06,33,8.40
2008,05,31,06,34,8.40
2008,05,31,06,35,8.50
2008,05,31,06,36,8.50
2008,05,31,06,37,8.60
2008,05,31,06,38,8.70
2008,05,31,06,39,8.70
2008,05,31,06,40,8.70
2008,05,31,06,41,8.70
2008,05,31,06,42,8.80
2008,05,31,06,43,8.80
2008,05,31,06,44,8.80
2008,05,31,06,45,8.90
2008,05,31,06,46,8.90
2008,05,31,06,47,9.00
2008,05,31,06,48,9.00
2008,05,31,06,49,9.00
2008,05,31,06,50,9.10
2008,05,31,06,51,9.10
2008,05,31,06,52,9.20
2008,05,31,06,53,9.20
2008,05,31,06,54,9.20
2008,05,31,06,55,9.30
2008,05,31,06,56,9.30
2008,05,31,06,57,9.40
2008,05,31,06,58,9.50
2008,05,31,06,59,9.50
2008,05,31,07,00,9.60
2008,05,31,07,01,9.70
2008,05,31,07,02,9.80
2008,05,31,07,03,9.80
2008,05,31,07,04,9.90
2008,05,31,07,05,10.10
2008,05,31,07,06,10.10
2008,05,31,07,07,10.20
2008,05,31,07,08,10.30
2008,05,31,07,09,10.40
2008,05,31,07,10,10.50
2008,05,31,07,11,10.60
2008,05,31,07,12,10.60
2008,05,31,07,13,10.70
2008,05,31,07,14,10.80
2008,05,31,07,15,10.90
2008,05,31,07,16,11.00
2008,05,31,07,17,11.10
2008,05,31,07,18,11.10
2008,05,31,07,19,11.20
2008,05,31,07,20,11.30
2008,05,31,07,21,11.30
2008,05,31,07,22,11.40
2008,05,31,07,23,11.40
2008,05,31,07,24,11.40
2008,05,31,07,25,11.50
2008,05,31,07,26,11.50
2008,05,31,07,27,11.40
2008,05,31,07,28,11.40
2008,05,31,07,29,11.30
2008,05,31,07,30,11.30
2008,05,31,07,31,11.20
2008,05,31,07,32,11.20
2008,05,31,07,33,11.20
2008,05,31,07,34,11.20
2008,05,31,07,35,11.20
2008,05,31,07,36,11.20
2008,05,31,07,37,11.30
2008,05,31,07,38,11.20
2008,05,31,07,39,11.30
2008,05,31,07,40,11.20
2008,05,31,07,41,11.20
2008,05,31,07,42,11.20
2008,05,31,07,43,11.20
2008,05,31,07,44,11.20
2008,05,31,07,45,11.20
2008,05,31,07,46,11.10
2008,05,31,07,47,11.10
2008,05,31,07,48,11.10
2008,05,31,07,49,11.20
2008,05,31,07,50,11.20
2008,05,31,07,51,11.20
2008,05,31,07,52,11.20
2008,05,31,07,53,11.30
2008,05,31,07,54,11.30
2008,05,31,07,55,11.40
2008,05,31,07,56,11.40
2008,05,31,07,57,11.50
2008,05,31,07,58,11.60
2008,05,31,07,59,11.60
2008,05,31,08,00,11.60
2008,05,31,08,01,11.60
2008,05,31,08,02,11.70
2008,05,31,08,03,11.70
2008,05,31,08,04,11.80
2008,05,31,08,05,11.80
2008,05,31,08,06,11.90
2008,05,31,08,07,12.00
2008,05,31,08,08,12.00
2008,05,31,08,09,12.10
2008,05,31,08,10,12.10
2008,05,31,08,11,12.20
2008,05,31,08,12,12.30
2008,05,31,08,13,12.30
2008,05,31,08,14,12.30
2008,05,31,08,15,12.30
2008,05,31,08,16,12.20
2008,05,31,08,17,12.20
2008,05,31,08,18,12.20
2008,05,31,08,19,12.20
2008,05,31,08,20,12.10
2008,05,31,08,21,12.20
2008,05,31,08,22,12.20
2008,05,31,08,23,12.20
2008,05,31,08,24,12.30
2008,05,31,08,25,12.30
2008,05,31,08,26,12.40
2008,05,31,08,27,12.50
2008,05,31,08,28,12.50
2008,05,31,08,29,12.50
2008,05,31,08,30,12.60
2008,05,31,08,31,12.50
2008,05,31,08,32,12.60
2008,05,31,08,33,12.60
2008,05,31,08,34,12.70
2008,05,31,08,35,12.60
2008,05,31,08,36,12.60
2008,05,31,08,37,12.60
2008,05,31,08,38,12.70
2008,05,31,08,39,12.70
2008,05,31,08,40,12.80
2008,05,31,08,41,12.80
2008,05,31,08,42,12.80
2008,05,31,08,43,12.80
2008,05,31,08,44,12.70
2008,05,31,08,45,12.60
2008,05,31,08,46,12.50
2008,05,31,08,47,12.40
2008,05,31,08,48,12.40
2008,05,31,08,49,12.30
2008,05,31,08,50,12.30
2008,05,31,08,51,12.30
2008,05,31,08,52,12.30
2008,05,31,08,53,12.30
2008,05,31,08,54,12.40
2008,05,31,08,55,12.50
2008,05,31,08,56,12.50
2008,05,31,08,57,12.50
2008,05,31,08,58,12.50
2008,05,31,08,59,12.50
2008,05,31,09,00,12.50
2008,05,31,09,01,12.50
2008,05,31,09,02,12.60
2008,05,31,09,03,12.60
2008,05,31,09,04,12.60
2008,05,31,09,05,12.60
2008,05,31,09,06,12.60
2008,05,31,09,07,12.60
2008,05,31,09,08,12.60
2008,05,31,09,09,12.60
2008,05,31,09,10,12.60
2008,05,31,09,11,12.70
2008,05,31,09,12,12.70
2008,05,31,09,13,12.70
2008,05,31,09,14,12.70
2008,05,31,09,15,12.70
2008,05,31,09,16,12.70
2008,05,31,09,17,12.80
2008,05,31,09,18,12.80
2008,05,31,09,19,12.80
2008,05,31,09,20,12.80
2008,05,31,09,21,12.80
2008,05,31,09,22,12.80
2008,05,31,09,23,12.80
2008,05,31,09,24,12.80
2008,05,31,09,25,12.80
2008,05,31,09,26,12.80
2008,05,31,09,27,12.80
2008,05,31,09,28,12.90
2008,05,31,09,29,12.90
2008,05,31,09,30,12.90
2008,05,31,09,31,13.00
2008,05,31,09,32,13.00
2008,05,31,09,33,13.10
2008,05,31,09,34,13.10
2008,05,31,09,35,13.20
2008,05,31,09,36,13.20
2008,05,31,09,37,13.20
2008,05,31,09,38,13.20
2008,05,31,09,39,13.30
2008,05,31,09,40,13.40
2008,05,31,09,41,13.40
2008,05,31,09,42,13.40
2008,05,31,09,43,13.40
2008,05,31,09,44,13.40
2008,05,31,09,45,13.40
2008,05,31,09,46,13.40
2008,05,31,09,47,13.40
2008,05,31,09,48,13.40
2008,05,31,09,49,13.30
2008,05,31,09,50,13.30
2008,05,31,09,51,13.30
2008,05,31,09,52,13.30
2008,05,31,09,53,13.30
2008,05,31,09,54,13.30
2008,05,31,09,55,13.40
2008,05,31,09,56,13.50
2008,05,31,09,57,13.50
2008,05,31,09,58,13.40
2008,05,31,09,59,13.40
2008,05,31,10,00,13.50
2008,05,31,10,01,13.50
2008,05,31,10,02,13.60
2008,05,31,10,03,13.60
2008,05,31,10,04,13.60
2008,05,31,10,05,13.70
2008,05,31,10,06,13.70
2008,05,31,10,07,13.70
2008,05,31,10,08,13.80
2008,05,31,10,09,13.80
2008,05,31,10,10,13.90
2008,05,31,10,11,13.90
2008,05,31,10,12,14.00
2008,05,31,10,13,13.90
2008,05,31,10,14,13.90
2008,05,31,10,15,13.90
2008,05,31,10,16,13.90
2008,05,31,10,17,14.00
2008,05,31,10,18,14.00
2008,05,31,10,19,14.00
2008,05,31,10,20,14.00
2008,05,31,10,21,13.90
2008,05,31,10,22,13.90
2008,05,31,10,23,13.90
2008,05,31,10,24,13.90
2008,05,31,10,25,14.00
2008,05,31,10,26,14.00
2008,05,31,10,27,14.00
2008,05,31,10,28,14.00
2008,05,31,10,29,14.00
2008,05,31,10,30,14.00
2008,05,31,10,31,14.10
2008,05,31,10,32,14.10
2008,05,31,10,33,14.20
2008,05,31,10,34,14.20
2008,05,31,10,35,14.20
2008,05,31,10,36,14.20
2008,05,31,10,37,14.20
2008,05,31,10,38,14.20
2008,05,31,10,39,14.20
2008,05,31,10,40,14.20
2008,05,31,10,41,14.20
2008,05,31,10,42,14.20
2008,05,31,10,43,14.20
2008,05,31,10,44,14.20
2008,05,31,10,45,14.20
2008,05,31,10,46,14.20
2008,05,31,10,47,14.20
2008,05,31,10,48,14.20
2008,05,31,10,49,14.20
2008,05,31,10,50,14.40
2008,05,31,10,51,14.50
2008,05,31,10,52,14.60
2008,05,31,10,53,14.60
2008,05,31,10,54,14.60
2008,05,31,10,55,14.60
2008,05,31,10,56,14.60
2008,05,31,10,57,14.70
2008,05,31,10,58,14.70
2008,05,31,10,59,14.60
2008,05,31,11,00,14.60
2008,05,31,11,01,14.50
2008,05,31,11,02,14.50
2008,05,31,11,03,14.40
2008,05,31,11,04,14.30
2008,05,31,11,05,14.40
2008,05,31,11,06,14.40
2008,05,31,11,07,14.50
2008,05,31,11,08,14.50
2008,05,31,11,09,14.50
2008,05,31,11,10,14.50
2008,05,31,11,11,14.50
2008,05,31,11,12,14.60
2008,05,31,11,13,14.60
2008,05,31,11,14,14.60
2008,05,31,11,15,14.70
2008,05,31,11,16,14.80
2008,05,31,11,17,14.80
2008,05,31,11,18,14.70
2008,05,31,11,19,14.70
2008,05,31,11,20,14.80
2008,05,31,11,21,14.80
2008,05,31,11,22,14.70
2008,05,31,11,23,14.70
2008,05,31,11,24,14.80
2008,05,31,11,25,14.80
2008,05,31,11,26,14.80
2008,05,31,11,27,14.80
2008,05,31,11,28,14.80
2008,05,31,11,29,14.80
2008,05,31,11,30,14.90
2008,05,31,11,31,15.00
2008,05,31,11,32,15.00
2008,05,31,11,33,15.00
2008,05,31,11,34,14.90
2008,05,31,11,35,14.90
2008,05,31,11,36,14.90
2008,05,31,11,37,14.90
2008,05,31,11,38,15.00
2008,05,31,11,39,14.90
2008,05,31,11,40,14.90
2008,05,31,11,41,14.70
2008,05,31,11,42,14.60
2008,05,31,11,43,14.50
2008,05,31,11,44,14.60
2008,05,31,11,45,14.70
2008,05,31,11,46,14.80
2008,05,31,11,47,15.00
2008,05,31,11,48,15.10
2008,05,31,11,49,15.10
2008,05,31,11,50,15.20
2008,05,31,11,51,15.10
2008,05,31,11,52,15.10
2008,05,31,11,53,15.20
2008,05,31,11,54,15.10
2008,05,31,11,55,15.10
2008,05,31,11,56,15.10
2008,05,31,11,57,15.20
2008,05,31,11,58,15.20
2008,05,31,11,59,15.30
2008,05,31,12,00,15.30
2008,05,31,12,01,15.40
2008,05,31,12,02,15.50
2008,05,31,12,03,15.50
2008,05,31,12,04,15.50
2008,05,31,12,05,15.50
2008,05,31,12,06,15.40
2008,05,31,12,07,15.30
2008,05,31,12,08,15.30
2008,05,31,12,09,15.40
2008,05,31,12,10,15.50
2008,05,31,12,11,15.50
2008,05,31,12,12,15.60
2008,05,31,12,13,15.70
2008,05,31,12,14,15.50
2008,05,31,12,15,15.30
2008,05,31,12,16,15.30
2008,05,31,12,17,15.20
2008,05,31,12,18,15.20
2008,05,31,12,19,15.10
2008,05,31,12,20,15.10
2008,05,31,12,21,15.10
2008,05,31,12,22,15.20
2008,05,31,12,23,15.30
2008,05,31,12,24,15.30
2008,05,31,12,25,15.30
2008,05,31,12,26,15.30
2008,05,31,12,27,15.30
2008,05,31,12,28,15.30
2008,05,31,12,29,15.20
2008,05,31,12,30,15.10
2008,05,31,12,31,15.00
2008,05,31,12,32,15.00
2008,05,31,12,33,15.10
2008,05,31,12,34,15.20
2008,05,31,12,35,15.40
2008,05,31,12,36,15.50
2008,05,31,12,37,15.50
2008,05,31,12,38,15.60
2008,05,31,12,39,15.70
2008,05,31,12,40,15.80
2008,05,31,12,41,15.90
2008,05,31,12,42,15.90
2008,05,31,12,43,15.80
2008,05,31,12,44,15.80
2008,05,31,12,45,15.80
2008,05,31,12,46,15.80
2008,05,31,12,47,15.80
2008,05,31,12,48,15.70
2008,05,31,12,49,15.70
2008,05,31,12,50,15.70
2008,05,31,12,51,15.60
2008,05,31,12,52,15.50
2008,05,31,12,53,15.60
2008,05,31,12,54,15.70
2008,05,31,12,55,15.70
2008,05,31,12,56,15.70
2008,05,31,12,57,15.60
2008,05,31,12,58,15.60
2008,05,31,12,59,15.60
2008,05,31,13,00,15.60
2008,05,31,13,01,15.60
2008,05,31,13,02,15.70
2008,05,31,13,03,15.80
2008,05,31,13,04,15.80
2008,05,31,13,05,15.90
2008,05,31,13,06,15.90
2008,05,31,13,07,15.90
2008,05,31,13,08,15.80
2008,05,31,13,09,15.80
2008,05,31,13,10,15.80
2008,05,31,13,11,15.80
2008,05,31,13,12,15.80
2008,05,31,13,13,15.90
2008,05,31,13,14,16.00
2008,05,31,13,15,16.10
2008,05,31,13,16,16.20
2008,05,31,13,17,16.20
2008,05,31,13,18,16.10
2008,05,31,13,19,15.90
2008,05,31,13,20,15.80
2008,05,31,13,21,15.80
2008,05,31,13,22,15.80
2008,05,31,13,23,15.80
2008,05,31,13,24,15.80
2008,05,31,13,25,15.80
2008,05,31,13,26,15.80
2008,05,31,13,27,15.90
2008,05,31,13,28,16.10
2008,05,31,13,29,16.10
2008,05,31,13,30,16.30
2008,05,31,13,31,16.40
2008,05,31,13,32,16.50
2008,05,31,13,33,16.60
2008,05,31,13,34,16.70
2008,05,31,13,35,16.70
2008,05,31,13,36,16.70
2008,05,31,13,37,16.70
2008,05,31,13,38,16.70
2008,05,31,13,39,16.60
2008,05,31,13,40,16.60
2008,05,31,13,41,16.60
2008,05,31,13,42,16.60
2008,05,31,13,43,16.70
2008,05,31,13,44,16.70
2008,05,31,13,45,16.70
2008,05,31,13,46,16.70
2008,05,31,13,47,16.70
2008,05,31,13,48,16.70
2008,05,31,13,49,16.70
2008,05,31,13,50,16.70
2008,05,31,13,51,16.80
2008,05,31,13,52,16.90
2008,05,31,13,53,16.80
2008,05,31,13,54,16.80
2008,05,31,13,55,16.90
2008,05,31,13,56,16.90
2008,05,31,13,57,16.90
2008,05,31,13,58,16.80
2008,05,31,13,59,16.70
2008,05,31,14,00,16.50
2008,05,31,14,01,16.40
2008,05,31,14,02,16.30
2008,05,31,14,03,16.30
2008,05,31,14,04,16.20
2008,05,31,14,05,16.00
2008,05,31,14,06,15.90
2008,05,31,14,07,15.90
2008,05,31,14,08,16.10
2008,05,31,14,09,16.00
2008,05,31,14,10,15.90
2008,05,31,14,11,15.70
2008,05,31,14,12,15.70
2008,05,31,14,13,15.80
2008,05,31,14,14,15.90
2008,05,31,14,15,16.00
2008,05,31,14,16,16.10
2008,05,31,14,17,16.30
2008,05,31,14,18,16.50
2008,05,31,14,19,16.50
2008,05,31,14,20,16.40
2008,05,31,14,21,16.40
2008,05,31,14,22,16.40
2008,05,31,14,23,16.40
2008,05,31,14,24,16.40
2008,05,31,14,25,16.40
2008,05,31,14,26,16.40
2008,05,31,14,27,16.40
2008,05,31,14,28,16.40
2008,05,31,14,29,16.40
2008,05,31,14,30,16.50
2008,05,31,14,31,16.40
2008,05,31,14,32,16.50
2008,05,31,14,33,16.70
2008,05,31,14,34,16.80
2008,05,31,14,35,16.90
2008,05,31,14,36,16.90
2008,05,31,14,37,16.90
2008,05,31,14,38,17.00
2008,05,31,14,39,16.90
2008,05,31,14,40,16.80
2008,05,31,14,41,16.70
2008,05,31,14,42,16.70
2008,05,31,14,43,16.70
2008,05,31,14,44,16.60
2008,05,31,14,45,16.60
2008,05,31,14,46,16.50
2008,05,31,14,47,16.50
2008,05,31,14,48,16.70
2008,05,31,14,49,16.80
2008,05,31,14,50,16.90
2008,05,31,14,51,16.80
2008,05,31,14,52,16.80
2008,05,31,14,53,16.70
2008,05,31,14,54,16.70
2008,05,31,14,55,16.70
2008,05,31,14,56,16.70
2008,05,31,14,57,16.70
2008,05,31,14,58,16.60
2008,05,31,14,59,16.60
2008,05,31,15,00,16.70
2008,05,31,15,01,16.80
2008,05,31,15,02,16.80
2008,05,31,15,03,16.80
2008,05,31,15,04,16.80
2008,05,31,15,05,16.90
2008,05,31,15,06,16.90
2008,05,31,15,07,16.90
2008,05,31,15,08,17.00
2008,05,31,15,09,17.10
2008,05,31,15,10,17.10
2008,05,31,15,11,17.20
2008,05,31,15,12,17.10
2008,05,31,15,13,17.00
2008,05,31,15,14,16.90
2008,05,31,15,15,16.80
2008,05,31,15,16,16.70
2008,05,31,15,17,16.70
2008,05,31,15,18,16.70
2008,05,31,15,19,16.80
2008,05,31,15,20,16.80
2008,05,31,15,21,16.80
2008,05,31,15,22,16.70
2008,05,31,15,23,16.70
2008,05,31,15,24,16.70
2008,05,31,15,25,16.70
2008,05,31,15,26,16.70
2008,05,31,15,27,16.80
2008,05,31,15,28,16.80
2008,05,31,15,29,16.90
2008,05,31,15,30,16.90
2008,05,31,15,31,16.80
2008,05,31,15,32,16.80
2008,05,31,15,33,16.80
2008,05,31,15,34,16.80
2008,05,31,15,35,16.90
2008,05,31,15,36,16.90
2008,05,31,15,37,16.90
2008,05,31,15,38,16.90
2008,05,31,15,39,16.90
2008,05,31,15,40,17.00
2008,05,31,15,41,17.00
2008,05,31,15,42,17.00
2008,05,31,15,43,17.10
2008,05,31,15,44,17.20
2008,05,31,15,45,17.30
2008,05,31,15,46,17.40
2008,05,31,15,47,17.50
2008,05,31,15,48,17.60
2008,05,31,15,49,17.60
2008,05,31,15,50,17.50
2008,05,31,15,51,17.50
2008,05,31,15,52,17.50
2008,05,31,15,53,17.50
2008,05,31,15,54,17.50
2008,05,31,15,55,17.50
2008,05,31,15,56,17.40
2008,05,31,15,57,17.30
2008,05,31,15,58,17.30
2008,05,31,15,59,17.30
2008,05,31,16,00,17.20
2008,05,31,16,01,17.20
2008,05,31,16,02,17.30
2008,05,31,16,03,17.30
2008,05,31,16,04,17.30
2008,05,31,16,05,17.30
2008,05,31,16,06,17.30
2008,05,31,16,07,17.30
2008,05,31,16,08,17.30
2008,05,31,16,09,17.40
2008,05,31,16,10,17.50
2008,05,31,16,11,17.50
2008,05,31,16,12,17.50
2008,05,31,16,13,17.50
2008,05,31,16,14,17.40
2008,05,31,16,15,17.50
2008,05,31,16,16,17.40
2008,05,31,16,17,17.40
2008,05,31,16,18,17.30
2008,05,31,16,19,17.30
2008,05,31,16,20,17.20
2008,05,31,16,21,17.30
2008,05,31,16,22,17.30
2008,05,31,16,23,17.40
2008,05,31,16,24,17.40
2008,05,31,16,25,17.40
2008,05,31,16,26,17.40
2008,05,31,16,27,17.40
2008,05,31,16,28,17.30
2008,05,31,16,29,17.20
2008,05,31,16,30,17.20
2008,05,31,16,31,17.40
2008,05,31,16,32,17.50
2008,05,31,16,33,17.40
2008,05,31,16,34,17.20
2008,05,31,16,35,17.10
2008,05,31,16,36,17.00
2008,05,31,16,37,16.80
2008,05,31,16,38,16.70
2008,05,31,16,39,16.70
2008,05,31,16,40,16.70
2008,05,31,16,41,16.80
2008,05,31,16,42,16.90
2008,05,31,16,43,17.00
2008,05,31,16,44,17.00
2008,05,31,16,45,17.20
2008,05,31,16,46,17.30
2008,05,31,16,47,17.30
2008,05,31,16,48,17.30
2008,05,31,16,49,17.40
2008,05,31,16,50,17.40
2008,05,31,16,51,17.30
2008,05,31,16,52,17.30
2008,05,31,16,53,17.20
2008,05,31,16,54,17.30
2008,05,31,16,55,17.40
2008,05,31,16,56,17.60
2008,05,31,16,57,17.60
2008,05,31,16,58,17.70
2008,05,31,16,59,17.70
2008,05,31,17,00,17.70
2008,05,31,17,01,17.70
2008,05,31,17,02,17.60
2008,05,31,17,03,17.50
2008,05,31,17,04,17.50
2008,05,31,17,05,17.50
2008,05,31,17,06,17.60
2008,05,31,17,07,17.60
2008,05,31,17,08,17.50
2008,05,31,17,09,17.50
2008,05,31,17,10,17.50
2008,05,31,17,11,17.60
2008,05,31,17,12,17.70
2008,05,31,17,13,17.70
2008,05,31,17,14,17.80
2008,05,31,17,15,17.80
2008,05,31,17,16,17.80
2008,05,31,17,17,17.70
2008,05,31,17,18,17.70
2008,05,31,17,19,17.60
2008,05,31,17,20,17.50
2008,05,31,17,21,17.60
2008,05,31,17,22,17.60
2008,05,31,17,23,17.60
2008,05,31,17,24,17.60
2008,05,31,17,25,17.70
2008,05,31,17,26,17.60
2008,05,31,17,27,17.50
2008,05,31,17,28,17.40
2008,05,31,17,29,17.30
2008,05,31,17,30,17.30
2008,05,31,17,31,17.30
2008,05,31,17,32,17.30
2008,05,31,17,33,17.30
2008,05,31,17,34,17.30
2008,05,31,17,35,17.20
2008,05,31,17,36,17.20
2008,05,31,17,37,17.20